Time,TemperatureF,DewpointF,PressureIn,WindDirection,WindDirectionDegrees,WindSpeedMPH,WindSpeedGustMPH,Humidity,HourlyPrecipIn,Conditions,Clouds,dailyrainin,SolarRadiationWatts/m^2,SoftwareType,DateUTC
2013-09-25 00:23:00,53.0,31.0,-100.00,NE,56,2.0,7.0,42,0.00,,,0.00,0.000000,,2013-09-25 06:23:00,
2013-09-25 00:32:00,53.0,31.0,-100.00,NE,56,2.0,7.0,42,0.00,,,0.00,0.000000,,2013-09-25 06:32:00,
2013-09-25 00:42:00,53.0,31.0,-100.00,NE,56,2.0,7.0,42,0.00,,,0.00,0.000000,,2013-09-25 06:42:00,
2013-09-25 00:51:00,52.0,30.0,-100.00,NNE,14,1.0,6.0,43,0.00,,,0.00,0.000000,,2013-09-25 06:51:00,
2013-09-25 01:21:00,52.0,30.0,-100.00,NNE,14,1.0,6.0,43,0.00,,,0.00,0.000000,,2013-09-25 07:21:00,
2013-09-25 01:33:00,52.0,30.0,-100.00,NNE,14,1.0,6.0,43,0.00,,,0.00,0.000000,,2013-09-25 07:33:00,
2013-09-25 01:42:00,52.0,30.0,-100.00,NNE,14,1.0,6.0,43,0.00,,,0.00,0.000000,,2013-09-25 07:42:00,
2013-09-25 01:51:00,51.0,30.0,-100.00,North,349,4.0,7.0,45,0.00,,,0.00,0.000000,,2013-09-25 07:51:00,
2013-09-25 02:21:00,51.0,30.0,-100.00,North,349,4.0,7.0,45,0.00,,,0.00,0.000000,,2013-09-25 08:21:00,
2013-09-25 02:32:00,51.0,30.0,-100.00,North,349,4.0,7.0,45,0.00,,,0.00,0.000000,,2013-09-25 08:32:00,
2013-09-25 02:42:00,51.0,30.0,-100.00,North,349,4.0,7.0,45,0.00,,,0.00,0.000000,,2013-09-25 08:42:00,
2013-09-25 02:51:00,50.0,30.0,-100.00,NNW,328,2.0,7.0,46,0.00,,,0.00,0.000000,,2013-09-25 08:51:00,
2013-09-25 03:21:00,50.0,30.0,-100.00,NNW,328,2.0,7.0,46,0.00,,,0.00,0.000000,,2013-09-25 09:21:00,
2013-09-25 03:33:00,50.0,30.0,-100.00,NNW,328,2.0,7.0,46,0.00,,,0.00,0.000000,,2013-09-25 09:33:00,
2013-09-25 03:43:00,50.0,30.0,-100.00,NNW,328,2.0,7.0,46,0.00,,,0.00,0.000000,,2013-09-25 09:43:00,
2013-09-25 03:51:00,53.0,28.0,-100.00,SSE,163,4.0,6.0,38,0.00,,,0.00,0.000000,,2013-09-25 09:51:00,
2013-09-25 04:23:00,53.0,28.0,-100.00,SSE,163,4.0,6.0,38,0.00,,,0.00,0.000000,,2013-09-25 10:23:00,
2013-09-25 04:32:00,53.0,28.0,-100.00,SSE,163,4.0,6.0,38,0.00,,,0.00,0.000000,,2013-09-25 10:32:00,
2013-09-25 04:42:00,53.0,28.0,-100.00,SSE,163,4.0,6.0,38,0.00,,,0.00,0.000000,,2013-09-25 10:42:00,
2013-09-25 04:51:00,49.0,29.0,-100.00,East,79,3.0,8.0,46,0.00,,,0.00,0.000000,,2013-09-25 10:51:00,
2013-09-25 05:22:00,49.0,29.0,-100.00,East,79,3.0,8.0,46,0.00,,,0.00,0.000000,,2013-09-25 11:22:00,
2013-09-25 05:33:00,49.0,29.0,-100.00,East,79,3.0,8.0,46,0.00,,,0.00,0.000000,,2013-09-25 11:33:00,
2013-09-25 05:42:00,49.0,29.0,-100.00,East,79,3.0,8.0,46,0.00,,,0.00,0.000000,,2013-09-25 11:42:00,
2013-09-25 05:51:00,48.0,29.0,-100.00,SSW,211,2.0,8.0,48,0.00,,,0.00,0.000000,,2013-09-25 11:51:00,
2013-09-25 06:22:00,48.0,29.0,-100.00,SSW,211,2.0,8.0,48,0.00,,,0.00,0.000000,,2013-09-25 12:22:00,
2013-09-25 06:32:00,48.0,29.0,-100.00,SSW,211,2.0,8.0,48,0.00,,,0.00,0.000000,,2013-09-25 12:32:00,
2013-09-25 06:42:00,48.0,29.0,-100.00,SSW,211,2.0,8.0,48,0.00,,,0.00,0.000000,,2013-09-25 12:42:00,
2013-09-25 06:51:00,47.0,29.0,-100.00,ENE,70,5.0,10.0,49,0.00,,,0.00,0.000000,,2013-09-25 12:51:00,
2013-09-25 07:22:00,47.0,29.0,-100.00,ENE,70,5.0,10.0,49,0.00,,,0.00,0.000000,,2013-09-25 13:22:00,
2013-09-25 07:32:00,47.0,29.0,-100.00,ENE,70,5.0,10.0,49,0.00,,,0.00,0.000000,,2013-09-25 13:32:00,
2013-09-25 07:42:00,47.0,29.0,-100.00,ENE,70,5.0,10.0,49,0.00,,,0.00,0.000000,,2013-09-25 13:42:00,
2013-09-25 07:51:00,51.0,30.0,-100.00,NE,51,5.0,10.0,44,0.00,,,0.00,16.000000,,2013-09-25 13:51:00,
2013-09-25 08:22:00,51.0,30.0,-100.00,NE,51,5.0,10.0,44,0.00,,,0.00,16.000000,,2013-09-25 14:22:00,
2013-09-25 08:32:00,51.0,30.0,-100.00,NE,51,5.0,10.0,44,0.00,,,0.00,16.000000,,2013-09-25 14:32:00,
2013-09-25 08:43:00,51.0,30.0,-100.00,NE,51,5.0,10.0,44,0.00,,,0.00,16.000000,,2013-09-25 14:43:00,
2013-09-25 08:51:00,53.0,32.0,-100.00,NNW,327,4.0,11.0,44,0.00,,,0.00,43.000000,,2013-09-25 14:51:00,
2013-09-25 09:22:00,53.0,32.0,-100.00,NNW,327,4.0,11.0,44,0.00,,,0.00,43.000000,,2013-09-25 15:22:00,
2013-09-25 09:33:00,53.0,32.0,-100.00,NNW,327,4.0,11.0,44,0.00,,,0.00,43.000000,,2013-09-25 15:33:00,
2013-09-25 09:43:00,53.0,32.0,-100.00,NNW,327,4.0,11.0,44,0.00,,,0.00,43.000000,,2013-09-25 15:43:00,
2013-09-25 09:51:00,59.0,33.0,-100.00,NW,306,5.0,9.0,37,0.00,,,0.00,135.000000,,2013-09-25 15:51:00,
2013-09-25 10:23:00,59.0,33.0,-100.00,NW,306,5.0,9.0,37,0.00,,,0.00,135.000000,,2013-09-25 16:23:00,
2013-09-25 10:32:00,59.0,33.0,-100.00,NW,306,5.0,9.0,37,0.00,,,0.00,135.000000,,2013-09-25 16:32:00,
2013-09-25 10:43:00,59.0,33.0,-100.00,NW,306,5.0,9.0,37,0.00,,,0.00,135.000000,,2013-09-25 16:43:00,
2013-09-25 10:51:00,65.0,32.0,-100.00,West,280,6.0,10.0,29,0.00,,,0.00,42.000000,,2013-09-25 16:51:00,
2013-09-25 11:23:00,65.0,32.0,-100.00,West,280,6.0,10.0,29,0.00,,,0.00,42.000000,,2013-09-25 17:23:00,
2013-09-25 11:34:00,65.0,32.0,-100.00,West,280,6.0,10.0,29,0.00,,,0.00,42.000000,,2013-09-25 17:34:00,
2013-09-25 11:42:00,65.0,32.0,-100.00,West,280,6.0,10.0,29,0.00,,,0.00,42.000000,,2013-09-25 17:42:00,
2013-09-25 11:51:00,73.0,23.0,-100.00,SSW,198,14.0,29.0,15,0.00,,,0.00,44.000000,,2013-09-25 17:51:00,
2013-09-25 12:22:00,73.0,23.0,-100.00,SSW,198,14.0,29.0,15,0.00,,,0.00,44.000000,,2013-09-25 18:22:00,
2013-09-25 12:32:00,73.0,23.0,-100.00,SSW,198,14.0,29.0,15,0.00,,,0.00,44.000000,,2013-09-25 18:32:00,
2013-09-25 12:42:00,73.0,23.0,-100.00,SSW,198,14.0,29.0,15,0.00,,,0.00,44.000000,,2013-09-25 18:42:00,
2013-09-25 12:51:00,75.0,24.0,-100.00,SSW,200,15.0,35.0,15,0.00,,,0.00,286.000000,,2013-09-25 18:51:00,
2013-09-25 13:22:00,75.0,24.0,-100.00,SSW,200,15.0,35.0,15,0.00,,,0.00,286.000000,,2013-09-25 19:22:00,
2013-09-25 13:31:00,75.0,24.0,-100.00,SSW,200,15.0,35.0,15,0.00,,,0.00,286.000000,,2013-09-25 19:31:00,
2013-09-25 13:42:00,75.0,24.0,-100.00,SSW,200,15.0,35.0,15,0.00,,,0.00,286.000000,,2013-09-25 19:42:00,
2013-09-25 13:51:00,75.0,26.0,-100.00,SSW,210,17.0,34.0,16,0.00,,,0.00,858.000000,,2013-09-25 19:51:00,
2013-09-25 14:22:00,75.0,26.0,-100.00,SSW,210,17.0,34.0,16,0.00,,,0.00,858.000000,,2013-09-25 20:22:00,
2013-09-25 14:32:00,75.0,26.0,-100.00,SSW,210,17.0,34.0,16,0.00,,,0.00,858.000000,,2013-09-25 20:32:00,
2013-09-25 14:42:00,75.0,26.0,-100.00,SSW,210,17.0,34.0,16,0.00,,,0.00,858.000000,,2013-09-25 20:42:00,
2013-09-25 14:51:00,76.0,25.0,-100.00,SW,224,24.0,39.0,15,0.00,,,0.00,897.000000,,2013-09-25 20:51:00,
2013-09-25 15:22:00,76.0,25.0,-100.00,SW,224,24.0,39.0,15,0.00,,,0.00,897.000000,,2013-09-25 21:22:00,
2013-09-25 15:34:00,76.0,25.0,-100.00,SW,224,24.0,39.0,15,0.00,,,0.00,897.000000,,2013-09-25 21:34:00,
2013-09-25 15:44:00,76.0,25.0,-100.00,SW,224,24.0,39.0,15,0.00,,,0.00,897.000000,,2013-09-25 21:44:00,
2013-09-25 15:51:00,77.0,26.0,-100.00,SW,223,15.0,37.0,15,0.00,,,0.00,770.000000,,2013-09-25 21:51:00,
2013-09-25 16:23:00,77.0,26.0,-100.00,SW,223,15.0,37.0,15,0.00,,,0.00,770.000000,,2013-09-25 22:23:00,
2013-09-25 16:33:00,77.0,26.0,-100.00,SW,223,15.0,37.0,15,0.00,,,0.00,770.000000,,2013-09-25 22:33:00,
2013-09-25 16:42:00,77.0,26.0,-100.00,SW,223,15.0,37.0,15,0.00,,,0.00,770.000000,,2013-09-25 22:42:00,
2013-09-25 16:51:00,76.0,25.0,-100.00,SW,218,23.0,35.0,15,0.00,,,0.00,604.000000,,2013-09-25 22:51:00,
2013-09-25 17:22:00,76.0,25.0,-100.00,SW,218,23.0,35.0,15,0.00,,,0.00,604.000000,,2013-09-25 23:22:00,
2013-09-25 17:34:00,76.0,25.0,-100.00,SW,218,23.0,35.0,15,0.00,,,0.00,604.000000,,2013-09-25 23:34:00,
2013-09-25 17:42:00,76.0,25.0,-100.00,SW,218,23.0,35.0,15,0.00,,,0.00,604.000000,,2013-09-25 23:42:00,
2013-09-25 17:51:00,73.0,23.0,-100.00,SW,225,19.0,35.0,15,0.00,,,0.00,339.000000,,2013-09-25 23:51:00,
2013-09-25 18:22:00,73.0,23.0,-100.00,SW,225,19.0,35.0,15,0.00,,,0.00,339.000000,,2013-09-26 00:22:00,
2013-09-25 18:32:00,73.0,23.0,-100.00,SW,225,19.0,35.0,15,0.00,,,0.00,339.000000,,2013-09-26 00:32:00,
2013-09-25 18:42:00,73.0,23.0,-100.00,SW,225,19.0,35.0,15,0.00,,,0.00,339.000000,,2013-09-26 00:42:00,
2013-09-25 18:51:00,71.0,21.0,-100.00,SW,221,15.0,36.0,15,0.00,,,0.00,59.000000,,2013-09-26 00:51:00,
2013-09-25 19:22:00,71.0,21.0,-100.00,SW,221,15.0,36.0,15,0.00,,,0.00,59.000000,,2013-09-26 01:22:00,
2013-09-25 19:32:00,71.0,21.0,-100.00,SW,221,15.0,36.0,15,0.00,,,0.00,59.000000,,2013-09-26 01:32:00,
2013-09-25 19:42:00,71.0,21.0,-100.00,SW,221,15.0,36.0,15,0.00,,,0.00,59.000000,,2013-09-26 01:42:00,
2013-09-25 19:51:00,70.0,25.0,-100.00,SW,215,15.0,38.0,18,0.00,,,0.00,2.000000,,2013-09-26 01:51:00,
2013-09-25 20:21:00,70.0,25.0,-100.00,SW,215,15.0,38.0,18,0.00,,,0.00,2.000000,,2013-09-26 02:21:00,
2013-09-25 20:32:00,70.0,25.0,-100.00,SW,215,15.0,38.0,18,0.00,,,0.00,2.000000,,2013-09-26 02:32:00,
2013-09-25 20:42:00,70.0,25.0,-100.00,SW,215,15.0,38.0,18,0.00,,,0.00,2.000000,,2013-09-26 02:42:00,
2013-09-25 20:51:00,70.0,20.0,-100.00,SSW,205,17.0,34.0,15,0.00,,,0.00,0.000000,,2013-09-26 02:51:00,
2013-09-25 21:22:00,70.0,20.0,-100.00,SSW,205,17.0,34.0,15,0.00,,,0.00,0.000000,,2013-09-26 03:22:00,
2013-09-25 21:34:00,70.0,20.0,-100.00,SSW,205,17.0,34.0,15,0.00,,,0.00,0.000000,,2013-09-26 03:34:00,
2013-09-25 21:44:00,70.0,20.0,-100.00,SSW,205,17.0,34.0,15,0.00,,,0.00,0.000000,,2013-09-26 03:44:00,
2013-09-25 21:51:00,70.0,22.0,-100.00,SSW,199,19.0,35.0,16,0.00,,,0.00,0.000000,,2013-09-26 03:51:00,
2013-09-25 22:24:00,70.0,22.0,-100.00,SSW,199,19.0,35.0,16,0.00,,,0.00,0.000000,,2013-09-26 04:24:00,
2013-09-25 22:34:00,70.0,22.0,-100.00,SSW,199,19.0,35.0,16,0.00,,,0.00,0.000000,,2013-09-26 04:34:00,
2013-09-25 22:44:00,70.0,22.0,-100.00,SSW,199,19.0,35.0,16,0.00,,,0.00,0.000000,,2013-09-26 04:44:00,
2013-09-25 22:51:00,69.0,24.0,-100.00,SSW,197,20.0,40.0,18,0.00,,,0.00,0.000000,,2013-09-26 04:51:00,
2013-09-25 23:23:00,69.0,24.0,-100.00,SSW,197,20.0,40.0,18,0.00,,,0.00,0.000000,,2013-09-26 05:23:00,
2013-09-25 23:33:00,69.0,24.0,-100.00,SSW,197,20.0,40.0,18,0.00,,,0.00,0.000000,,2013-09-26 05:33:00,
2013-09-25 23:43:00,69.0,24.0,-100.00,SSW,197,20.0,40.0,18,0.00,,,0.00,0.000000,,2013-09-26 05:43:00,
2013-09-25 23:51:00,61.0,28.0,-100.00,West,261,7.0,34.0,28,0.00,,,0.00,0.000000,,2013-09-26 05:51:00,